User: anonymous   Login
Location: Oshawa
(43.9000°N, 78.8670°W)
Time: 15:45:01
(UTC-04:00)
Language:

CZ-4C R/B - Orbit

View from above orbital plane
View from above orbital plane
View from above satellite
View from above satellite

Ground track
Ground track

The orbit data is extracted from the following two-line orbital elements,

1 32290U 07055B   16211.33289527  .00002317  00000-0  70565-4 0  9993
2 32290  97.5267 305.6816 0069873 200.6738 159.1675 15.32711182482337
Epoch (UTC): 29 July 2016 07:59:22
Eccentricity: 0.0069873
inclination: 97.5267°
perigee height: 420 km
apogee height: 515 km
right ascension of ascending node: 305.6816°
argument of perigee: 200.6738°
revolutions per day: 15.32711182
mean anomaly at epoch: 159.1675°
orbit number at epoch: 48233

The dashed part of the orbit path shows where the satellite is in the earth's shadow,  

DLR